Weather History for KMTJ - February, 2013

Change the Weather History Date:

Sunday, February 10, 2013

  Actual Average Record
Temperature  
Mean Temperature 28 °F 31 °F  
Max Temperature 35 °F 43 °F 58 °F (2015)
Min Temperature 20 °F 20 °F -5 °F (2011)
Degree Days  
Heating Degree Days 37 34  
Month to date heating degree days 312 350  
Since 1 July heating degree days 4025 4155  
Cooling Degree Days 0 0  
Month to date cooling degree days 0 0  
Year to date cooling degree days 0 0  
Moisture  
Dew Point 19 °F    
Average Humidity 66    
Maximum Humidity 88    
Minimum Humidity 43    
Precipitation  
Precipitation T in 0.02 in 0.15 in (2014)
Month to date precipitation 0.01 0.17  
Year to date precipitation 0.58 0.82  
Sea Level Pressure  
Sea Level Pressure 29.84 in    
Wind  
Wind Speed 5 mph (SSE)    
Max Wind Speed 17 mph    
Max Gust Speed 21 mph    
Visibility 10 miles    
Events Snow    
T = Trace of Precipitation, MM = Missing Value Source: NWS Daily Summary

Daily Weather History Graph

Daily Weather History Graph

Search for Another Location

Airport or City:

Trip Planner

Search our weather history database for the weather conditions in past years. The results will help you decide how hot, cold, wet, or windy it might be!

Date:

Astronomy

Feb. 10, 2013 Rise Set
Actual Time 7:07 AM MST 5:44 PM MST
Civil Twilight 6:40 AM MST 6:11 PM MST
Nautical Twilight 6:09 AM MST 6:43 PM MST
Astronomical Twilight 5:38 AM MST 7:13 PM MST
Moon 7:00 AM MST (2/10) 6:37 PM MST (2/10)
Length of Visible Light 11h 31m
Length of Day
10h 36m
New Moon, 0% of the Moon is Illuminated
Feb 10
New Moon
Feb 17
First Quarter
Feb 25
Full
Mar 4
Last Quarter
Mar 11
New

Hourly Weather History & Observations

Time (MST) Temp. Windchill Dew Point Humidity Pressure Visibility Wind Dir Wind Speed Gust Speed Precip Events Conditions
12:53 AM 28.0 °F 21.7 °F 21.9 °F 78% 29.75 in 10.0 mi North 5.8 mph - 0.00 in Snow Light Snow
1:53 AM 27.0 °F 20.5 °F 24.1 °F 89% 29.76 in 10.0 mi SSE 5.8 mph - 0.00 in   Overcast
2:53 AM 26.1 °F 20.5 °F 24.1 °F 92% 29.77 in 9.0 mi ESE 4.6 mph - 0.00 in Snow Light Snow
3:53 AM 25.0 °F - 21.9 °F 88% 29.78 in 10.0 mi Calm Calm - 0.00 in   Overcast
4:53 AM 23.0 °F 15.8 °F 19.9 °F 88% 29.81 in 10.0 mi SSE 5.8 mph - N/A   Overcast
6:28 AM 19.4 °F 10.4 °F 15.8 °F 86% 29.80 in 10.0 mi SSE 6.9 mph - N/A   Partly Cloudy
6:44 AM 19.4 °F 10.4 °F 15.8 °F 86% 29.81 in 10.0 mi SSE 6.9 mph - N/A   Mostly Cloudy
6:53 AM 19.9 °F 12.1 °F 15.1 °F 81% 29.84 in 10.0 mi SSE 5.8 mph - N/A   Overcast
7:36 AM 21.2 °F 14.9 °F 15.8 °F 80% 29.83 in 10.0 mi SSE 4.6 mph - N/A   Overcast
7:48 AM 21.2 °F 12.6 °F 15.8 °F 80% 29.83 in 10.0 mi SSE 6.9 mph - N/A   Overcast
7:53 AM 21.0 °F 13.4 °F 16.0 °F 81% 29.86 in 10.0 mi SSE 5.8 mph - N/A   Overcast
8:53 AM 23.0 °F 14.7 °F 17.1 °F 78% 29.88 in 10.0 mi SSE 6.9 mph - 0.00 in   Overcast
9:53 AM 27.0 °F 21.6 °F 21.0 °F 78% 29.87 in 10.0 mi SE 4.6 mph - N/A   Scattered Clouds
10:53 AM 30.0 °F - 19.0 °F 64% 29.86 in 10.0 mi Calm Calm - N/A   Clear
11:53 AM 32.0 °F - 18.0 °F 56% 29.84 in 10.0 mi Calm Calm - N/A   Scattered Clouds
12:53 PM 33.1 °F - 16.0 °F 50% 29.81 in 10.0 mi Calm Calm - N/A   Scattered Clouds
1:53 PM 34.0 °F 28.0 °F 19.0 °F 54% 29.81 in 10.0 mi WNW 6.9 mph - N/A   Mostly Cloudy
2:53 PM 34.0 °F - 14.0 °F 44% 29.80 in 10.0 mi Calm Calm - N/A   Partly Cloudy
3:53 PM 34.0 °F 31.0 °F 14.0 °F 44% 29.81 in 10.0 mi SE 3.5 mph - N/A   Overcast
4:53 PM 34.0 °F - 16.0 °F 48% 29.83 in 10.0 mi Calm Calm - N/A   Overcast
5:53 PM 32.0 °F 23.0 °F 19.9 °F 61% 29.87 in 10.0 mi SSE 11.5 mph - N/A   Overcast
6:53 PM 30.9 °F 21.2 °F 21.9 °F 69% 29.90 in 10.0 mi SE 12.7 mph - N/A   Overcast
7:53 PM 30.0 °F 23.2 °F 23.0 °F 75% 29.91 in 10.0 mi SSE 6.9 mph - N/A   Overcast
9:53 PM 28.9 °F 23.9 °F 21.9 °F 75% 29.91 in 10.0 mi SE 4.6 mph - N/A   Overcast
10:53 PM 28.0 °F 21.7 °F 21.9 °F 78% 29.90 in 10.0 mi SSE 5.8 mph - N/A   Overcast
11:53 PM 28.0 °F 22.8 °F 21.0 °F 75% 29.89 in 10.0 mi South 4.6 mph - N/A   Overcast